Regional Weather Roundup
Issued by NWS

Home | Current Version | Previous Version | Text Only | Print | Product List | Glossary On
Versions: 1 2 3 4 5 6 7 8 9 10 11 12 13 14 15 16 17 18 19 20 21 22 23 24 25 26 27 28 29 30 31 32 33 34 35 36 37 38 39 40 41 42 43 44 45 46 47 48 49 50
000
ASUS44 KFWD 300515
RWRTX
NORTH TEXAS HOURLY WEATHER ROUNDUP
NATIONAL WEATHER SERVICE FORT WORTH TX
1200 AM CDT TUE MAY 30 2017

NOTE: "FAIR" INDICATES FEW OR NO CLOUDS BELOW 12,000 FEET WITH NO
SIGNIFICANT WEATHER AND/OR OBSTRUCTIONS TO VISIBILITY.

TXZ118-119-300600-
DALLAS/FORT WORTH METROPLEX

CITY           SKY/WX    TMP DP  RH WIND       PRES   REMARKS
DFW AIRPORT    PTCLDY    74  55  51 E5        30.05R
DALLAS LOVE    CLEAR     75  59  57 E5        30.06R
FTW MEACHAM    PTCLDY    74  55  51 CALM      30.06S
DAL-EXECUTIVE  CLEAR     68  59  73 CALM      30.06R
FTW-ALLIANCE   PTCLDY    64  55  72 SW3       30.06S
FTW-NAS-JRB    CLEAR     73  61  65 CALM      30.07R
FTW-SPINKS     CLEAR     66  53  62 CALM      30.09S
ARLINGTON      CLEAR     63  57  81 CALM      30.07R
GRAND PRAIRIE  CLEAR     72  56  58 CALM      30.08S
ADDISON        CLEAR     75  55  49 E3        30.09R
MESQUITE       CLEAR     66  60  80 CALM      30.06S
LANCASTER      CLEAR     64  60  86 CALM      30.07S
$$

TXZ091>094-102>105-117-120-121-131>134-300600-
NORTH CENTRAL TEXAS

CITY           SKY/WX    TMP DP  RH WIND       PRES   REMARKS
SHRMAN/DENISON CLEAR     66  55  69 CALM      30.08S
GAINESVILLE    CLEAR     66  56  68 CALM      30.10R
BOWIE          CLEAR     64  60  88 CALM      30.08S
BRIDGEPORT     CLEAR     62  53  74 CALM      30.09S
DECATUR        CLEAR     73  51  46 SE3       30.09S
DENTON         CLEAR     63  58  83 CALM      30.06R
MCKINNEY       CLEAR     65  59  81 CALM      30.07R
BONHAM         HAZE      64  57  77 S5        30.07S VSB 1
GREENVILLE     CLEAR     66  63  88 CALM      30.08R
ROCKWALL       CLEAR     70  57  63 SE3       30.07R
TERRELL        CLEAR     68  62  81 N3        30.07R
WAXAHACHIE     CLEAR     68  59  72 CALM      30.08S
CLEBURNE       CLEAR     70  55  60 SE6       30.09S
GRANBURY       CLEAR     64  54  68 CALM      30.09R
$$

TXZ083>090-098>101-113>116-127>130-139>142-154-155-300600-
WESTERN NORTH TEXAS

CITY           SKY/WX    TMP DP  RH WIND       PRES   REMARKS
WICHITA FALLS  CLEAR     67  53  61 S10       30.07S
WF-KICKAPOO    CLEAR     67  54  62 S6        30.10S
VERNON         PTCLDY    70  46  41 S7        30.09S
ABILENE        CLOUDY    63  55  75 CALM      30.12R
GRAHAM         CLEAR     65  52  63 CALM      30.08S
BRECKENRIDGE   CLOUDY    69  47  44 SE6       30.10R
CISCO          CLOUDY    68  52  56 SE6       30.12R
EASTLAND       CLOUDY    59  53  80 CALM      30.11R
RANGER         CLOUDY    63  50  62 CALM      30.12R
MINERAL WELLS  CLEAR     68  49  50 CALM      30.08R
STEPHENVILLE   CLEAR     70  49  47 CALM      30.13R
COMANCHE       CLOUDY    70  56  62 CALM      30.11R
BROWNWOOD      CLOUDY    68  57  68 CALM      30.11R
COLEMAN        CLOUDY    70  51  50 CALM      30.12R
$$

TXZ143>147-156>162-174-175-300600-
CENTRAL TEXAS

CITY           SKY/WX    TMP DP  RH WIND       PRES   REMARKS
WACO           CLOUDY    71  68  90 CALM      30.06R
WACO-MCGREGOR  CLEAR     72  68  87 CALM      30.07R
HILLSBORO      CLEAR     71  64  79 E5        30.07R
CORSICANA      PTCLDY    74  69  85 E5        30.07R
MEXIA          CLOUDY    71  68  88 SW3       30.06R
HEARNE         CLOUDY    73  71  94 CALM      30.06R
CAMERON        CLOUDY    73  70  89 CALM      30.06R
TEMPLE         CLOUDY    71  68  90 NE5       30.07R
KILLEEN        CLOUDY    74  68  81 E6        30.07R
KILLEEN-SKYLRK CLOUDY    73  68  84 CALM      30.08R
FORT HOOD      CLOUDY    72  67  84 E3        30.05R
HAMILTON       PTCLDY    72  66  81 CALM      30.11R
LAMPASAS       CLOUDY    72  68  89 N3        30.08R
$$

TXZ095>097-106>112-122>126-135>138-148>153-164>167-300600-
EAST TEXAS

CITY           SKY/WX    TMP DP  RH WIND       PRES   REMARKS
PARIS          CLEAR     66  57  72 S6        30.07R
SULPHUR SPRNGS CLEAR     66  62  87 CALM      30.09R
MOUNT PLEASANT CLEAR     66  63  90 CALM      30.07S
GILMER         CLEAR     68  68  98 CALM      30.06F
MINEOLA        CLEAR     66  64  94 CALM      30.06S
TYLER          PTCLDY    72  70  93 SE3       30.06R
LONGVIEW       CLEAR    N/A N/A N/A CALM      30.05S
MARSHALL         N/A     67  65  93 CALM      30.07F
ATHENS         PTCLDY    68  68 100 CALM      30.05S
PALESTINE      CLOUDY    73  71  93 CALM      30.07R
JACKSONVILLE   CLEAR     72  71  97 CALM      30.08S
HENDERSON      CLEAR    N/A N/A N/A CALM      30.07S FOG
CENTER         CLEAR     73  71  95 NW3       30.05S FOG
NACOGDOCHES    CLEAR     68  66  94 CALM      30.03S
LUFKIN         CLEAR     70  68  93 CALM      30.04R
$$

SUPPLEMENTAL OBSERVATIONS (NWS FORT WORTH AREA)

CITY           SKY/WX    TMP DP  RH WIND       PRES   REMARKS
DENISON DAM      N/A     72  54  53 S2          N/A
CADDO GRASSLND   N/A     64  61  88 S1          N/A
PAT MAYSE LAKE   N/A     70  64  83 SE2         N/A
GREENVILLE       N/A     66  59  77 S2          N/A
CEDAR HILL       N/A     70  57  64 SE3         N/A
LBJ GRASSLAND    N/A     72  50  46 E3          N/A
POSSUM KINGDOM   N/A     72  46  40 SE3         N/A
GRANBURY         N/A     64  52  63 SW2         N/A
COMANCHE         N/A     70  54  56 E1          N/A
MCGREGOR         N/A     72  68  88 NE1         N/A
TEMPLE           N/A     73  68  83 NE6         N/A
LAKE LIMESTONE   N/A     72  66  83 CALM        N/A
ATHENS           N/A     72  68  88 CALM        N/A
$$

SUPPLEMENTAL OBSERVATIONS (NWS NORMAN AREA)

CITY           SKY/WX    TMP DP  RH WIND       PRES   REMARKS
GOODLETT         N/A     67  45  45 S6        30.11S
ODELL            N/A     72  47  40 S10       30.11R
CROWELL          N/A     67  47  48 S6        30.12R
KNOX CITY        N/A     72  42  32 SE8       30.12R
SEYMOUR          N/A     69  47  46 SE5       30.10S
$$

SUPPLEMENTAL OBSERVATIONS (NWS SAN ANGELO AREA)

CITY           SKY/WX    TMP DP  RH WIND       PRES   REMARKS
WEINERT          N/A     71  46  40 SE6       30.12R
HASKELL          N/A     70  45  40 SE5       30.12R
THROCKMORTON     N/A     67  52  58 SW2       30.12R
STAMFORD         N/A     69  52  54 SE3       30.13R
CLYDE            N/A     66  53  62 E5        30.14F
HAMBY            N/A     64  54  68 E3          N/A
IVIE RESERVOIR   N/A     72  54  53 E7          N/A
COLORADO BEND    N/A     68  63  83 SE2         N/A
$$

SUPPLEMENTAL OBSERVATIONS (NWS SHREVEPORT AREA)

CITY           SKY/WX    TMP DP  RH WIND       PRES   REMARKS
CLARKSVILLE      N/A     70  55  60 SE2         N/A
TEXARKANA        N/A     61  59  94 CALM        N/A
LINDEN           N/A     66  63  88 CALM        N/A
CADDO LAKE       N/A     66  64  94 CALM        N/A
GILMER           N/A     70  68  94 CALM        N/A
HENDERSON        N/A     70  66  88 CALM        N/A
LUFKIN           N/A     70  66  88 MISG        N/A
N SABINE NF      N/A     68  66  94 MISG        N/A
S SABINE NF      N/A     68  66  94 CALM        N/A
$$

SUPPLEMENTAL OBSERVATIONS ARE A COLLECTION OF AUTOMATED INSTRUMENTS
THAT ARE MAINTAINED BY A VARIETY OF FEDERAL AND STATE AGENCIES.
CERTAIN ELEMENTS...SUCH AS HUMIDITY VALUES AND SUSTAINED WIND
SPEEDS...MAY BE APPROXIMATED.




USA.gov is the U.S. government's official web portal to all federal, state and local government web resources and services.